Location: Unspecified
(0.0000°N, 0.0000°E)
Time: 15:24:04
(UTC+00:00)

STARLINK-32185 - Visible Passes

Search period start: 15 June 2025 00:00
Search period end: 25 June 2025 00:00
Orbit: 474 x 476 km, 53.2° (Epoch: 15 June)

Date Brightness Start Highest point End Pass type
(mag) Time Alt. Az. Time Alt. Az. Time Alt. Az.
21 Jun 5.1 19:19:51 10° SSW 19:21:07 19° S 19:21:07 19° S visible
22 Jun 4.1 18:50:26 10° S 18:53:41 29° SE 18:56:56 10° ENE visible
22 Jun 6.8 20:30:36 10° WNW 20:31:23 11° NW 20:32:09 10° NW visible
23 Jun 6.6 19:59:55 10° W 20:01:45 13° NW 20:03:36 10° NNW visible
24 Jun 6.5 19:29:41 10° W 19:32:06 17° NW 19:34:32 10° NNW visible
